Weather History for Eveleth, MN

Change the Weather History Date:

Tuesday, October 9, 2012

  Actual Average Record
Temperature  
Mean Temperature 37 °F -  
Max Temperature 42 °F 54 °F 78 °F (2003)
Min Temperature 32 °F 33 °F 17 °F (2000)
Degree Days  
Heating Degree Days 28    
Moisture  
Dew Point 34 °F    
Average Humidity 86    
Maximum Humidity 100    
Minimum Humidity 66    
Precipitation  
Precipitation 0.00 in - - ()
Sea Level Pressure  
Sea Level Pressure 29.69 in    
Wind  
Wind Speed 9 mph (West)    
Max Wind Speed 21 mph    
Max Gust Speed 26 mph    
Visibility 10 miles    
Events Rain , Snow    
Averages and records for this station are not official NWS values.
T = Trace of Precipitation, MM = Missing Value Source: NWS Daily Summary

Daily Weather History Graph

Daily Weather History Graph

Search for Another Location

Airport:

Trip Planner

Search our weather history database for the weather conditions in past years. The results will help you decide how hot, cold, wet, or windy it might be!

Date:

Astronomy

Oct. 09, 2012 Rise Set
Actual Time 7:20 AM CDT 6:32 PM CDT
Civil Twilight 6:50 AM CDT 7:03 PM CDT
Nautical Twilight 6:14 AM CDT 7:38 PM CDT
Astronomical Twilight 5:38 AM CDT 8:14 PM CDT
Moon 12:33 AM CDT (10/9) 3:22 PM CDT (10/9)
Length of Visible Light 12h 13m
Length of Day
11h 11m
Last Quarter, 36% of the Moon is Illuminated
Oct 9
Last Quarter
Oct 15
New
Oct 21
First Quarter
Oct 29
Full
Nov 6
Last Quarter

Hourly Weather History & Observations

Time (CDT) Temp. Windchill Dew Point Humidity Pressure Visibility Wind Dir Wind Speed Gust Speed Precip Events Conditions
12:09 AM 41.0 °F 36.4 °F 37.4 °F 87% 29.61 in 10.0 mi WSW 6.9 mph - N/A   Overcast
12:30 AM 41.0 °F 35.8 °F 37.4 °F 87% 29.61 in 10.0 mi SW 8.1 mph - N/A   Overcast
12:49 AM 41.0 °F 36.4 °F 37.4 °F 87% 29.61 in 7.0 mi SW 6.9 mph - N/A   Drizzle
1:09 AM 41.0 °F 36.4 °F 37.4 °F 87% 29.61 in 10.0 mi SW 6.9 mph - N/A Rain Light Rain
1:29 AM 41.0 °F 37.1 °F 37.4 °F 87% 29.61 in 10.0 mi SW 5.8 mph - N/A   Overcast
1:49 AM 41.0 °F 36.4 °F 37.4 °F 87% 29.61 in 10.0 mi SW 6.9 mph - N/A   Overcast
2:10 AM 41.0 °F 37.1 °F 37.4 °F 87% 29.61 in 10.0 mi SW 5.8 mph - N/A   Overcast
3:10 AM 39.2 °F 33.6 °F 37.4 °F 93% 29.61 in 10.0 mi SW 8.1 mph - N/A   Mostly Cloudy
3:29 AM 39.2 °F 34.2 °F 37.4 °F 93% 29.61 in 10.0 mi SW 6.9 mph - N/A   Mostly Cloudy
3:49 AM 37.4 °F 32.1 °F 37.4 °F 100% 29.61 in 10.0 mi SW 6.9 mph - N/A   Mostly Cloudy
4:10 AM 37.4 °F 32.1 °F 37.4 °F 100% 29.61 in 10.0 mi WSW 6.9 mph - N/A   Mostly Cloudy
4:29 AM 37.4 °F 32.1 °F 35.6 °F 93% 29.62 in 10.0 mi WSW 6.9 mph - N/A   Overcast
4:49 AM 37.4 °F 32.1 °F 35.6 °F 93% 29.62 in 10.0 mi WSW 6.9 mph - N/A   Mostly Cloudy
5:10 AM 37.4 °F 32.1 °F 35.6 °F 93% 29.62 in 10.0 mi SW 6.9 mph - N/A   Mostly Cloudy
5:29 AM 37.4 °F 32.1 °F 35.6 °F 93% 29.61 in 10.0 mi SW 6.9 mph - N/A   Mostly Cloudy
5:49 AM 37.4 °F 33.8 °F 35.6 °F 93% 29.61 in 10.0 mi SW 4.6 mph - N/A   Scattered Clouds
6:09 AM 37.4 °F 32.8 °F 35.6 °F 93% 29.62 in 10.0 mi SW 5.8 mph - N/A   Scattered Clouds
6:29 AM 37.4 °F 32.1 °F 35.6 °F 93% 29.62 in 10.0 mi WSW 6.9 mph - N/A   Mostly Cloudy
7:09 AM 37.4 °F 32.1 °F 35.6 °F 93% 29.62 in 10.0 mi SW 6.9 mph - N/A   Clear
7:29 AM 37.4 °F 31.4 °F 35.6 °F 93% 29.62 in 10.0 mi SW 8.1 mph - N/A   Mostly Cloudy
7:50 AM 37.4 °F 30.8 °F 35.6 °F 93% 29.63 in 10.0 mi SW 9.2 mph - N/A   Overcast
8:09 AM 37.4 °F 32.1 °F 35.6 °F 93% 29.63 in 10.0 mi WSW 6.9 mph - N/A   Scattered Clouds
8:29 AM 37.4 °F 30.3 °F 35.6 °F 93% 29.63 in 10.0 mi WSW 10.4 mph - N/A   Clear
8:50 AM 37.4 °F 30.3 °F 35.6 °F 93% 29.64 in 10.0 mi WSW 10.4 mph - N/A   Clear
9:10 AM 39.2 °F 32.5 °F 35.6 °F 87% 29.64 in 10.0 mi WSW 10.4 mph 17.3 mph N/A   Clear
9:29 AM 41.0 °F 33.9 °F 35.6 °F 81% 29.63 in 10.0 mi WSW 12.7 mph - N/A   Scattered Clouds
9:50 AM 41.0 °F 32.8 °F 35.6 °F 81% 29.64 in 10.0 mi West 16.1 mph 20.7 mph N/A   Scattered Clouds
10:10 AM 42.8 °F 36.2 °F 35.6 °F 76% 29.64 in 10.0 mi WSW 12.7 mph 17.3 mph N/A   Overcast
10:29 AM 41.0 °F 33.5 °F 33.8 °F 76% 29.64 in 10.0 mi WSW 13.8 mph 20.7 mph N/A   Overcast
10:50 AM 41.0 °F 33.1 °F 32.0 °F 70% 29.65 in 10.0 mi West 15.0 mph 19.6 mph N/A   Overcast
11:09 AM 41.0 °F 35.2 °F 33.8 °F 76% 29.65 in 10.0 mi West 9.2 mph - N/A   Overcast
11:50 AM 42.8 °F 36.2 °F 33.8 °F 70% 29.65 in 10.0 mi West 12.7 mph 17.3 mph N/A   Overcast
12:09 PM 42.8 °F 37.0 °F 32.0 °F 66% 29.65 in 10.0 mi West 10.4 mph - N/A   Overcast
12:29 PM 41.0 °F 33.5 °F 32.0 °F 70% 29.65 in 10.0 mi West 13.8 mph - N/A   Overcast
12:50 PM 42.8 °F 35.8 °F 32.0 °F 66% 29.65 in 10.0 mi West 13.8 mph - N/A   Overcast
1:09 PM 42.8 °F 34.8 °F 32.0 °F 66% 29.66 in 10.0 mi WSW 17.3 mph 23.0 mph N/A   Overcast
1:29 PM 41.0 °F 33.5 °F 33.8 °F 76% 29.66 in 10.0 mi West 13.8 mph - N/A   Overcast
1:50 PM 41.0 °F 33.9 °F 33.8 °F 76% 29.66 in 10.0 mi West 12.7 mph 18.4 mph N/A   Overcast
2:09 PM 41.0 °F 34.7 °F 33.8 °F 76% 29.66 in 10.0 mi West 10.4 mph 21.9 mph N/A   Overcast
2:29 PM 41.0 °F 35.2 °F 37.4 °F 87% 29.67 in 7.0 mi West 9.2 mph - N/A   Overcast
2:50 PM 41.0 °F 33.5 °F 35.6 °F 81% 29.67 in 10.0 mi NW 13.8 mph 18.4 mph N/A   Light Drizzle
3:09 PM 41.0 °F 34.7 °F 35.6 °F 81% 29.68 in 10.0 mi WNW 10.4 mph - N/A   Mostly Cloudy
3:29 PM 41.0 °F 33.9 °F 33.8 °F 76% 29.68 in 10.0 mi WNW 12.7 mph 19.6 mph N/A   Mostly Cloudy
3:49 PM 41.0 °F 34.3 °F 33.8 °F 76% 29.70 in 10.0 mi NW 11.5 mph 19.6 mph N/A   Mostly Cloudy
4:10 PM 39.2 °F 32.5 °F 35.6 °F 87% 29.71 in 7.0 mi West 10.4 mph - N/A   Scattered Clouds
4:29 PM 37.4 °F 27.8 °F 32.0 °F 81% 29.71 in 10.0 mi West 17.3 mph 21.9 mph N/A   Mostly Cloudy
4:49 PM 37.4 °F 28.5 °F 33.8 °F 87% 29.72 in 10.0 mi WNW 15.0 mph 21.9 mph N/A   Mostly Cloudy
5:10 PM 37.4 °F 29.8 °F 33.8 °F 87% 29.73 in 10.0 mi WNW 11.5 mph 18.4 mph N/A   Overcast
5:29 PM 37.4 °F 26.9 °F 32.0 °F 81% 29.74 in 10.0 mi WNW 20.7 mph 26.5 mph N/A   Overcast
5:49 PM 37.4 °F 28.2 °F 33.8 °F 87% 29.75 in 10.0 mi WNW 16.1 mph 21.9 mph N/A   Light Drizzle
6:10 PM 37.4 °F 28.5 °F 33.8 °F 87% 29.76 in 10.0 mi NW 15.0 mph 20.7 mph N/A   Overcast
6:29 PM 37.4 °F 29.3 °F 33.8 °F 87% 29.77 in 10.0 mi NW 12.7 mph 21.9 mph N/A   Overcast
6:49 PM 37.4 °F 29.8 °F 33.8 °F 87% 29.78 in 10.0 mi NW 11.5 mph 20.7 mph N/A   Overcast
7:10 PM 37.4 °F 30.3 °F 33.8 °F 87% 29.79 in 10.0 mi WNW 10.4 mph - N/A   Mostly Cloudy
7:29 PM 35.6 °F 28.0 °F 32.0 °F 87% 29.80 in 10.0 mi WNW 10.4 mph - N/A   Mostly Cloudy
7:49 PM 35.6 °F 27.1 °F 32.0 °F 87% 29.81 in 10.0 mi WNW 12.7 mph 16.1 mph N/A   Overcast
8:09 PM 35.6 °F 28.6 °F 32.0 °F 87% 29.82 in 10.0 mi WNW 9.2 mph - N/A   Overcast
8:30 PM 35.6 °F 27.1 °F 32.0 °F 87% 29.83 in 10.0 mi NW 12.7 mph 21.9 mph N/A   Overcast
8:50 PM 35.6 °F 28.0 °F 32.0 °F 87% 29.83 in 10.0 mi NW 10.4 mph - N/A   Overcast
9:09 PM 35.6 °F 27.5 °F 32.0 °F 87% 29.84 in 10.0 mi NW 11.5 mph - N/A   Overcast
9:30 PM 33.8 °F 26.4 °F 32.0 °F 93% 29.85 in 10.0 mi NW 9.2 mph 17.3 mph N/A   Overcast
9:50 PM 33.8 °F 23.9 °F 30.2 °F 87% 29.85 in 7.0 mi NW 15.0 mph 20.7 mph N/A Snow Light Snow
10:09 PM 32.0 °F 23.6 °F 30.2 °F 93% 29.86 in 5.0 mi NW 10.4 mph 17.3 mph N/A Snow Light Snow
10:30 PM 32.0 °F 25.6 °F 32.0 °F 100% 29.86 in 10.0 mi WNW 6.9 mph - N/A   Clear
10:50 PM 32.0 °F 24.8 °F 32.0 °F 100% 29.87 in 10.0 mi WNW 8.1 mph - N/A   Clear
11:09 PM 32.0 °F 24.2 °F 32.0 °F 100% 29.87 in 10.0 mi WNW 9.2 mph 16.1 mph N/A   Scattered Clouds
11:29 PM 32.0 °F 24.2 °F 32.0 °F 100% 29.87 in 10.0 mi WNW 9.2 mph - N/A   Scattered Clouds
11:50 PM 32.0 °F 24.2 °F 32.0 °F 100% 29.87 in 10.0 mi NW 9.2 mph - N/A   Mostly Cloudy